Tracking 18630 objects as of 23-May-2017
HD Live streaming from Space Station
objects crossing your sky now

MINOTAUR R/B

Track MINOTAUR R/B now!
10-day predictions


NORAD ID: 26066
Int'l Code: 2000-004F
Perigee: 749.9 km
Apogee: 797.3 km
Inclination: 100.2 °
Period: 100.2 minutes
Semi major axis: 7144 km
RCS: 1.5369 m2 (large)
Launch date: January 27, 2000
Source: United States (US)
Launch site: AIR FORCE WESTERN TEST RANGE (AFWTR)

Note: This is a ROCKET BODY
Your satellite tracking list
Your tracking list is empty





NASA's NSSDC Master Catalog

Two Line Element Set (TLE):
1 26066U 00004F   17142.94717155 -.00000005 +00000-0 +18020-4 0  9999
2 26066 100.2316 154.5777 0033143 357.7166 059.9527 14.37588896908238
Source of the keplerian elements: AFSPC